CZ-6A DEB, 54461

Orbit data source: Space-Track

CZ-6A DEB, 54461 is space debris in SSO originally from a launch on Fri, 11 Nov 2022 UTC launched from the Taiyaun Space Center, China (TSC). Debris objects in space refer to the collection of defunct objects orbiting the Earth. Examples of debris include non-operational satellites, rocket bodies, and fragments generated from explosions, collisions, or faulty payload assembly.

Loading next visibility...
Identifier
54461, 2022-151GM
Orbit
SSO
Country
Flag of CNCN / PRC
Related business
Manufacturer
SAST
Mission
Spacecraft
Bus & Motor
Unknown
Mass
Unknown
Launch date (UTC)
2022-11-11 (3 years ago)
Launch vehicle
Unknown
Launch site
Taiyaun Space Center, China (TSC)
Object type
Payload
Rocket body
Debris
Shape & HBR
Unknown shape, 0.1 m
Radar Cross Section
Small (<0.1 m²)

Expand to show TLE details & history
Last TLE update: 10 hours ago

TLE from 10 hours ago
0 CZ-6A DEB
1 54461U 22151GM  25353.96835608  .00001479  00000-0  99020-3 0  9998
2 54461  99.0016 347.0348 0127652 175.7340 184.4943 13.98564588157931
Epoch: 2025-12-19T23:14Z
TLE epoch observation values (Epoch: 2025-12-19T23:14:25.965Z)
Latitude
-0.00005°
Longitude
-90.37528°
Altitude
994.277 km
Speed
7.308 km/s
True Right ascension
23h 08m 08s
True Declination
0° 00' 00"
Sunlit
Object was in daylight at epoch
Visualization orbit readout
Latitude
Unknown
Longitude
Unknown
Altitude
Unknown
Speed
Unknown
Apparent Right ascension
Unknown
Apparent Declination
Unknown
Sunlit
N/A
Visualization observer readout
Local Sidereal Time
08:40:00
Azimuth
Unknown
Elevation
Unknown
Doppler factor
Unknown
Orbital elements
Apogee altitude
988.826 km
Perigee altitude
803.115 km
Semi-major axis
7,274.108 km
Eccentricity
0.01277
Inclination
99.0016°
RAAN
347.0348°
Arg. of periapsis
175.734°
True anomaly
184.38147°
Mean anomaly
184.4943°
Eccentric anomaly
184.43771°
Mean motion
3.49843 °/min
Orbital period
102.9 mins
BSTAR
0.0009902
Loading maneuver chart data...
Computing Atmospheric mass density...
Loading historical data...
Loading historical data...
Loading historical data...
Loading historical data...
Loading historical data...
Loading historical data...
Loading historical data...

Documentation

Showing up to 5 results
|